SCP
0 0 0 0 0 0 0 0 0 0 0 0 0 0 0 0 0 0 0 0 0 0 0 0 0 0 0 0 0 0 0 0 0 0 0 0 0 0 0 0 0 0 0
0 0 0 0 0 0 0 0 0 0 0 0 0 0 0 0 0 0 0 0 0 0 0 0 0 0 0 0 0 0 0 0 0 0 0 0 0 0 0 0 0 0 0
0 0 0 0 0 0 0 0 0 0 0 0 0 0 0 0 0 0 0 0 0 0 0 0 0 0 0 0 0 0 0 0 0 0 0 0 0 0 0 0 0 0 0
0 0 0 0 0 0 0 0 0 0 0 0 0 0 0 0 0 0 0 0 0 0 0 0 0 0 0 0 0 0 0 0 0 0 0 0 0 0 0 0 0 0 0
0 0 0 0 0 0 0 0 0 0 0 0 0 0 0 0 0 0 0 0 0 0 0 0 0 0 0 0 0 0 0 0 0 0 0 0 0 0 0 0 0 0 0
0 0 0 0 0 0 0 0 0 0 0 0 0 0 0 0 0 0 0 0 0 0 0 0 0 0 0 0 0 0 0 0 0 0 0 0 0 0 0 0 0 0 0
0 0 0 0 0 0 0 0 0 0 0 0 0 0 0 0 0 0 0 0 0 0 0 0 0 0 0 0 0 0 0 0 0 0 0 0 0 0 0 0 0 0 0
0 0 0 0 0 0 0 0 0 0 0 0 0 0 0 0 0 0 0 0 0 0 0 0 0 0 0 0 0 0 0 0 0 0 0 -0 -0 0 0 0 0 0 0
0 0 0 0 0 0 0 0 0 0 0 0 0 0 0 0 0 0 0 0 0 0 0 0 0 0 0 0 0 0 0 0 0 0 -0 -0 -0 0 0 0 0 0 0
0 0 0 0 0 0 0 0 0 0 0 0 0 0 0 0 0 0 0 0 0 0 0 0 0 0 0 0 0 0 0 0 0 -0 0 0 0 0 0 0 0 0 0
0 0 0 0 0 0 0 0 0 0 0 0 0 0 0 0 0 0 0 0 0 0 0 0 0 0 0 0 0 0 0 0 -0 0 0 0 0 0 0 0 0 0 0
1 0 0 0 0 0 0 0 0 0 0 0 0 0 0 0 0 0 0 0 0 0 0 0 0 0 0 0 0 0 0 0 0 0 0 0 0 0 0 0 0 0 0
1 0 0 0 0 0 0 0 0 0 0 0 0 0 0 0 0 0 0 0 0 0 0 0 0 0 0 0 0 0 0 0 0 0 0 0 0 0 0 0 0 0 0
1 0 0 0 0 0 0 0 0 0 0 0 0 0 0 0 0 0 0 0 0 0 0 0 0 0 0 0 0 0 0 0 0 0 0 0 0 0 0 0 0 0 0
0 0 0 0 0 0 0 0 0 0 0 0 0 0 0 0 0 0 0 0 0 0 0 0 0 0 0 0 0 0 0 0 0 0 0 0 0 0 0 0 0 0 0
0 0 -0 0 0 0 0 0 0 0 0 0 0 0 0 0 0 0 0 0 0 0 0 0 0 0 0 0 0 -0 0 0 0 0 0 0 0 0 0 0 0 0 0
0 -0 0 0 -0 0 0 0 0 0 0 0 0 0 0 0 0 0 0 0 0 0 0 0 0 0 0 0 0 0 0 0 0 0 0 0 0 0 0 0 0 0 0
0 0 0 0 -0 -0 -0 0 0 0 0 0 0 0 0 0 0 0 0 0 0 0 0 0 0 0 0 0 0 0 0 0 0 0 0 0 0 0 0 0 0 0 0
0 0 0 0 0 -0 0 0 0 0 0 0 0 0 0 0 0 0 0 0 0 0 0 0 0 0 0 0 0 0 0 0 0 0 0 0 0 0 0 0 0 0 0
0 0 0 0 0 0 0 0 0 0 0 0 0 0 0 0 0 0 0 0 0 0 0 0 0 0 0 0 0 0 0 0 0 0 0 0 0 0 0 0 0 0 0
0 0 0 0 0 0 0 0 0 0 0 0 0 0 0 0 0 0 0 0 0 0 0 0 0 0 0 0 0 0 0 0 0 0 0 0 0 0 0 0 0 0 0
0 0 0 0 0 0 0 0 0 0 0 0 0 0 -0 0 0 0 0 0 0 0 0 0 0 0 0 0 0 0 0 0 0 0 0 0 0 0 0 0 0 0 0
0 0 0 0 0 0 0 0 0 0 0 0 0 0 0 0 0 0 0 0 0 0 0 0 0 0 0 0 0 0 0 0 0 0 0 0 0 0 0 0 0 0 0
0 0 0 0 0 0 0 0 0 0 0 0 0 0 0 0 0 0 0 0 0 0 0 0 0 0 0 0 0 0 0 0 0 0 0 0 0 0 0 0 0 0 0
0 0 0 0 0 0 0 0 0 0 0 0 0 0 0 0 0 0 0 0 0 0 0 0 0 0 0 0 0 0 0 0 0 0 0 0 0 0 0 0 0 0 0
0 0 0 0 0 0 0 0 0 0 0 0 0 0 0 0 0 0 0 0 0 0 0 0 0 0 0 0 0 0 0 0 0 0 0 0 0 0 0 0 0 0 0
Wind_Speed_500mb
33 30 27 21 15 11 8 8 7 5 4 4 3 5 5 4 3 3 2 4 8 9 6 4 9 10 9 9 10 13 15 19 23 23 21 21 24 21 19 20 18 21 23
38 36 32 28 23 14 11 10 11 6 7 6 3 6 7 5 6 6 2 6 8 8 4 4 4 4 4 2 4 7 12 14 15 17 21 22 21 24 25 15 17 21 26
44 42 38 32 26 22 14 13 14 11 10 9 4 6 4 8 9 5 3 5 8 9 4 4 4 5 4 4 4 3 5 9 14 18 21 23 23 22 22 19 21 24 23
48 45 44 38 31 27 22 18 15 13 14 12 8 7 5 9 5 9 6 11 9 9 9 7 4 6 9 11 11 11 10 10 10 13 17 19 21 22 20 24 27 31 30
53 51 48 42 35 31 26 24 20 16 15 15 13 9 8 7 10 8 7 11 8 10 10 9 9 7 10 11 12 12 14 15 17 18 17 17 19 21 23 26 30 34 36
56 53 52 45 38 34 28 26 24 19 20 19 17 14 13 12 12 9 9 14 13 14 13 14 14 10 10 10 10 14 20 24 23 23 22 19 18 21 24 28 33 38 38
59 56 54 50 43 35 30 27 26 23 25 26 23 19 15 16 13 12 12 13 12 12 13 13 14 12 8 7 11 17 25 28 28 28 28 27 21 20 23 27 32 39 43
60 59 57 52 46 39 35 32 31 29 30 31 26 19 12 17 24 20 16 14 11 8 7 6 6 5 4 7 12 19 27 29 28 31 31 29 29 30 25 23 26 31 36
64 61 58 55 46 42 39 32 33 31 31 34 37 20 11 14 20 30 26 23 19 15 14 11 7 3 3 8 15 21 30 31 31 33 31 32 33 33 35 32 32 34 36
67 62 55 57 52 46 42 34 35 34 31 32 38 40 28 14 13 12 32 29 26 23 23 21 16 12 12 15 17 24 31 31 30 33 34 35 37 40 42 35 35 37 40
67 65 59 56 57 50 46 37 40 39 35 32 32 36 41 38 32 16 18 30 35 28 25 27 25 21 19 19 22 28 33 31 31 35 36 38 41 47 44 37 37 39 43
71 72 67 61 59 59 49 41 43 41 38 34 32 30 29 27 29 30 19 24 23 26 27 27 30 25 22 22 25 32 33 33 35 37 38 42 45 50 43 43 45 47 50
74 78 74 68 68 61 52 48 47 43 41 37 32 31 28 27 27 28 20 18 20 29 29 26 29 26 22 22 28 27 29 32 33 36 40 43 49 46 45 47 49 52 56
65 74 76 73 67 61 52 53 49 43 41 36 33 30 27 27 26 21 22 22 17 18 25 20 25 23 21 24 26 23 27 28 33 37 41 45 47 47 48 51 53 55 54
41 44 50 57 57 52 50 53 51 47 42 40 36 32 29 25 22 16 16 19 18 16 20 23 17 23 22 23 21 20 22 28 33 38 41 45 45 48 50 50 53 53 50
46 36 49 67 41 38 43 51 52 50 44 44 41 38 32 28 22 20 19 18 16 15 12 14 17 19 18 16 17 18 21 26 33 38 42 44 44 48 48 49 52 55 49
43 38 64 67 45 42 38 51 59 56 50 48 46 42 39 33 31 28 23 20 16 12 10 9 12 11 10 8 13 18 22 26 32 39 44 44 46 44 44 48 51 47 36
48 36 44 52 38 15 42 58 70 68 64 55 49 45 48 42 40 31 28 23 18 10 6 8 8 6 2 7 13 18 23 30 35 40 42 45 43 39 44 47 46 41 29
53 52 49 58 40 33 53 63 72 72 70 56 52 51 55 49 49 47 39 29 20 12 6 8 10 5 4 12 18 21 27 32 35 37 40 38 33 36 42 47 42 32 23
40 60 66 59 60 48 58 63 74 78 73 60 46 65 56 58 56 54 45 36 28 21 14 10 7 9 9 13 20 25 32 35 37 33 34 32 30 35 39 44 34 23 16
47 50 70 75 76 61 63 59 72 77 75 77 73 79 76 66 61 57 53 45 40 32 26 20 18 12 15 16 20 28 35 37 35 35 37 25 30 31 41 43 40 19 7
36 44 53 65 71 65 59 64 79 83 76 64 73 91 85 72 65 61 57 51 43 39 36 30 26 21 21 20 23 27 33 32 23 37 36 20 28 25 34 35 37 20 8
25 38 41 47 54 61 64 71 77 80 78 73 73 80 75 74 69 68 64 57 51 49 46 35 32 28 29 27 26 29 32 28 26 28 32 18 18 19 26 24 27 26 6
22 26 39 46 48 53 48 54 57 58 62 69 77 83 96 109 81 66 65 62 61 61 59 41 35 35 35 34 32 31 32 28 26 25 29 14 17 19 20 16 13 22 19
25 26 28 39 51 53 52 44 45 48 55 63 65 71 92 108 88 61 60 60 62 63 58 49 44 41 39 39 39 34 32 24 14 13 28 15 12 20 17 18 9 21 23
31 28 30 35 41 46 46 37 39 44 48 58 78 81 77 72 112 104 69 59 49 60 62 60 53 46 42 42 44 36 35 27 18 13 21 20 15 17 14 13 16 32 17
Wind_Direction_500mb
221 216 218 219 225 226 245 273 294 309 272 246 270 249 185 201 233 234 295 336 358 28 36 229 242 262 272 273 270 270 277 285 288 295 294 300 305 307 312 312 321 326 323
225 223 225 231 233 232 248 272 287 281 274 267 300 150 150 155 161 154 120 348 16 31 41 78 83 61 39 7 299 291 283 288 287 278 275 283 294 298 299 325 326 317 329
227 227 228 228 231 232 248 269 280 274 264 268 270 159 162 140 148 150 111 72 75 44 86 123 77 42 25 30 34 351 302 288 285 283 280 287 289 291 283 293 299 302 300
229 229 230 232 235 237 244 264 268 262 249 231 224 191 165 146 148 139 99 123 98 90 89 117 107 79 74 83 79 61 41 17 340 316 301 292 286 283 267 267 277 282 287
232 232 232 233 238 235 244 262 260 252 236 224 204 201 187 168 145 138 125 125 116 115 119 130 124 106 86 92 80 57 31 14 356 344 330 305 294 287 277 272 271 277 285
236 236 235 230 235 232 241 258 253 249 226 216 197 199 189 172 160 149 134 129 115 112 120 121 110 110 108 92 48 25 9 2 3 358 341 329 312 292 282 276 276 276 279
237 239 235 229 233 232 244 257 247 241 227 212 206 201 197 198 191 179 157 154 131 111 123 113 103 108 107 62 27 8 4 360 5 2 3 4 344 317 303 296 286 280 279
234 238 231 231 234 232 239 249 244 236 224 214 204 197 206 226 218 209 195 187 179 162 148 149 119 104 90 22 356 353 354 355 354 357 358 352 359 354 333 317 307 299 291
230 230 230 231 235 236 242 250 245 238 230 221 216 203 193 224 203 216 211 210 211 208 215 222 235 252 294 322 338 341 343 345 346 348 343 339 349 336 338 333 330 322 315
226 225 230 231 234 236 244 250 241 233 232 228 221 221 226 214 208 202 218 223 222 227 228 229 242 255 270 295 321 332 335 340 336 335 333 336 335 332 334 332 334 328 325
230 227 231 234 233 236 239 248 240 236 232 229 227 230 235 236 236 219 214 212 225 230 225 231 238 245 266 289 309 327 330 328 326 329 330 330 329 327 331 334 333 329 323
231 231 229 233 232 233 238 245 236 235 232 231 231 234 241 228 231 222 217 207 209 222 230 231 240 246 263 284 307 322 322 325 327 328 327 329 324 324 330 337 337 330 328
236 239 233 233 233 232 236 238 232 232 227 228 231 236 238 239 245 233 224 217 203 224 228 234 232 237 258 285 305 319 321 322 324 326 327 324 324 326 332 337 336 336 334
243 244 243 236 234 238 236 234 232 229 226 225 226 230 236 239 235 236 237 224 213 213 219 222 228 239 260 288 307 316 318 321 323 324 327 324 328 330 336 338 339 339 336
256 256 255 240 235 238 239 239 235 226 226 226 226 227 230 233 226 222 223 217 206 204 207 225 224 247 268 290 302 314 321 323 321 328 325 329 331 336 337 338 339 338 337
278 277 304 299 248 235 246 250 240 232 226 227 226 228 226 228 218 210 198 193 177 185 166 195 219 245 265 286 307 322 329 326 327 329 328 330 334 335 335 337 340 341 342
258 282 286 278 325 260 235 252 247 240 232 230 230 230 227 223 218 208 191 182 176 156 137 179 215 232 250 297 324 337 334 332 333 331 331 328 334 337 338 342 343 345 348
232 213 230 232 281 124 227 238 250 242 234 227 232 238 234 224 218 214 201 195 184 169 115 146 176 188 282 334 339 337 336 337 336 333 330 334 338 343 347 342 349 351 356
227 217 209 216 216 214 214 234 247 243 238 230 229 233 242 233 224 217 208 203 196 186 176 168 168 180 323 339 339 336 337 337 336 338 335 336 347 353 348 347 348 357 358
240 220 213 221 231 228 229 249 242 233 231 221 227 233 249 242 233 227 219 213 208 208 210 229 219 242 294 323 328 330 334 342 340 339 340 346 352 355 354 353 357 11 50
250 245 237 241 245 244 250 233 238 234 233 240 239 226 248 245 239 232 228 225 220 213 223 230 249 260 277 302 321 323 330 332 337 341 349 346 353 353 355 1 5 6 91
237 238 242 248 248 247 238 233 232 240 243 254 239 217 240 243 239 233 232 232 238 236 230 236 243 259 273 285 303 315 321 327 343 334 342 344 350 349 354 5 12 10 105
263 252 252 251 244 240 241 239 238 241 244 245 231 230 239 238 239 233 230 230 234 238 239 240 250 259 271 280 291 305 311 315 324 325 332 338 342 349 349 4 18 30 34
319 283 260 251 248 249 249 246 239 244 248 246 246 245 232 230 233 229 231 229 232 233 235 241 249 256 261 273 282 294 302 301 313 322 331 326 323 340 328 348 9 28 21
314 313 292 259 248 245 248 255 239 236 242 246 248 247 242 223 224 221 228 231 235 239 239 241 241 249 258 269 277 289 294 292 291 291 317 314 305 330 317 316 311 342 342
328 314 307 286 254 245 244 227 232 231 241 247 246 253 248 229 212 221 222 215 225 243 243 242 243 247 254 262 269 277 279 276 272 313 297 313 309 322 315 300 310 322 317
Wind_Speed_850mb
33 30 27 21 15 11 8 8 7 5 4 4 3 5 5 4 3 3 2 4 8 9 6 4 9 10 9 9 10 13 15 19 23 23 21 21 24 21 19 20 18 21 23
38 36 32 28 23 14 11 10 11 6 7 6 3 6 7 5 6 6 2 6 8 8 4 4 4 4 4 2 4 7 12 14 15 17 21 22 21 24 25 15 17 21 26
44 42 38 32 26 22 14 13 14 11 10 9 4 6 4 8 9 5 3 5 8 9 4 4 4 5 4 4 4 3 5 9 14 18 21 23 23 22 22 19 21 24 23
48 45 44 38 31 27 22 18 15 13 14 12 8 7 5 9 5 9 6 11 9 9 9 7 4 6 9 11 11 11 10 10 10 13 17 19 21 22 20 24 27 31 30
53 51 48 42 35 31 26 24 20 16 15 15 13 9 8 7 10 8 7 11 8 10 10 9 9 7 10 11 12 12 14 15 17 18 17 17 19 21 23 26 30 34 36
56 53 52 45 38 34 28 26 24 19 20 19 17 14 13 12 12 9 9 14 13 14 13 14 14 10 10 10 10 14 20 24 23 23 22 19 18 21 24 28 33 38 38
59 56 54 50 43 35 30 27 26 23 25 26 23 19 15 16 13 12 12 13 12 12 13 13 14 12 8 7 11 17 25 28 28 28 28 27 21 20 23 27 32 39 43
60 59 57 52 46 39 35 32 31 29 30 31 26 19 12 17 24 20 16 14 11 8 7 6 6 5 4 7 12 19 27 29 28 31 31 29 29 30 25 23 26 31 36
64 61 58 55 46 42 39 32 33 31 31 34 37 20 11 14 20 30 26 23 19 15 14 11 7 3 3 8 15 21 30 31 31 33 31 32 33 33 35 32 32 34 36
67 62 55 57 52 46 42 34 35 34 31 32 38 40 28 14 13 12 32 29 26 23 23 21 16 12 12 15 17 24 31 31 30 33 34 35 37 40 42 35 35 37 40
67 65 59 56 57 50 46 37 40 39 35 32 32 36 41 38 32 16 18 30 35 28 25 27 25 21 19 19 22 28 33 31 31 35 36 38 41 47 44 37 37 39 43
71 72 67 61 59 59 49 41 43 41 38 34 32 30 29 27 29 30 19 24 23 26 27 27 30 25 22 22 25 32 33 33 35 37 38 42 45 50 43 43 45 47 50
74 78 74 68 68 61 52 48 47 43 41 37 32 31 28 27 27 28 20 18 20 29 29 26 29 26 22 22 28 27 29 32 33 36 40 43 49 46 45 47 49 52 56
65 74 76 73 67 61 52 53 49 43 41 36 33 30 27 27 26 21 22 22 17 18 25 20 25 23 21 24 26 23 27 28 33 37 41 45 47 47 48 51 53 55 54
41 44 50 57 57 52 50 53 51 47 42 40 36 32 29 25 22 16 16 19 18 16 20 23 17 23 22 23 21 20 22 28 33 38 41 45 45 48 50 50 53 53 50
46 36 49 67 41 38 43 51 52 50 44 44 41 38 32 28 22 20 19 18 16 15 12 14 17 19 18 16 17 18 21 26 33 38 42 44 44 48 48 49 52 55 49
43 38 64 67 45 42 38 51 59 56 50 48 46 42 39 33 31 28 23 20 16 12 10 9 12 11 10 8 13 18 22 26 32 39 44 44 46 44 44 48 51 47 36
48 36 44 52 38 15 42 58 70 68 64 55 49 45 48 42 40 31 28 23 18 10 6 8 8 6 2 7 13 18 23 30 35 40 42 45 43 39 44 47 46 41 29
53 52 49 58 40 33 53 63 72 72 70 56 52 51 55 49 49 47 39 29 20 12 6 8 10 5 4 12 18 21 27 32 35 37 40 38 33 36 42 47 42 32 23
40 60 66 59 60 48 58 63 74 78 73 60 46 65 56 58 56 54 45 36 28 21 14 10 7 9 9 13 20 25 32 35 37 33 34 32 30 35 39 44 34 23 16
47 50 70 75 76 61 63 59 72 77 75 77 73 79 76 66 61 57 53 45 40 32 26 20 18 12 15 16 20 28 35 37 35 35 37 25 30 31 41 43 40 19 7
36 44 53 65 71 65 59 64 79 83 76 64 73 91 85 72 65 61 57 51 43 39 36 30 26 21 21 20 23 27 33 32 23 37 36 20 28 25 34 35 37 20 8
25 38 41 47 54 61 64 71 77 80 78 73 73 80 75 74 69 68 64 57 51 49 46 35 32 28 29 27 26 29 32 28 26 28 32 18 18 19 26 24 27 26 6
22 26 39 46 48 53 48 54 57 58 62 69 77 83 96 109 81 66 65 62 61 61 59 41 35 35 35 34 32 31 32 28 26 25 29 14 17 19 20 16 13 22 19
25 26 28 39 51 53 52 44 45 48 55 63 65 71 92 108 88 61 60 60 62 63 58 49 44 41 39 39 39 34 32 24 14 13 28 15 12 20 17 18 9 21 23
31 28 30 35 41 46 46 37 39 44 48 58 78 81 77 72 112 104 69 59 49 60 62 60 53 46 42 42 44 36 35 27 18 13 21 20 15 17 14 13 16 32 17
Wind_Direction_850mb
221 216 218 219 225 226 245 273 294 309 272 246 270 249 185 201 233 234 295 336 358 28 36 229 242 262 272 273 270 270 277 285 288 295 294 300 305 307 312 312 321 326 323
225 223 225 231 233 232 248 272 287 281 274 267 300 150 150 155 161 154 120 348 16 31 41 78 83 61 39 7 299 291 283 288 287 278 275 283 294 298 299 325 326 317 329
227 227 228 228 231 232 248 269 280 274 264 268 270 159 162 140 148 150 111 72 75 44 86 123 77 42 25 30 34 351 302 288 285 283 280 287 289 291 283 293 299 302 300
229 229 230 232 235 237 244 264 268 262 249 231 224 191 165 146 148 139 99 123 98 90 89 117 107 79 74 83 79 61 41 17 340 316 301 292 286 283 267 267 277 282 287
232 232 232 233 238 235 244 262 260 252 236 224 204 201 187 168 145 138 125 125 116 115 119 130 124 106 86 92 80 57 31 14 356 344 330 305 294 287 277 272 271 277 285
236 236 235 230 235 232 241 258 253 249 226 216 197 199 189 172 160 149 134 129 115 112 120 121 110 110 108 92 48 25 9 2 3 358 341 329 312 292 282 276 276 276 279
237 239 235 229 233 232 244 257 247 241 227 212 206 201 197 198 191 179 157 154 131 111 123 113 103 108 107 62 27 8 4 360 5 2 3 4 344 317 303 296 286 280 279
234 238 231 231 234 232 239 249 244 236 224 214 204 197 206 226 218 209 195 187 179 162 148 149 119 104 90 22 356 353 354 355 354 357 358 352 359 354 333 317 307 299 291
230 230 230 231 235 236 242 250 245 238 230 221 216 203 193 224 203 216 211 210 211 208 215 222 235 252 294 322 338 341 343 345 346 348 343 339 349 336 338 333 330 322 315
226 225 230 231 234 236 244 250 241 233 232 228 221 221 226 214 208 202 218 223 222 227 228 229 242 255 270 295 321 332 335 340 336 335 333 336 335 332 334 332 334 328 325
230 227 231 234 233 236 239 248 240 236 232 229 227 230 235 236 236 219 214 212 225 230 225 231 238 245 266 289 309 327 330 328 326 329 330 330 329 327 331 334 333 329 323
231 231 229 233 232 233 238 245 236 235 232 231 231 234 241 228 231 222 217 207 209 222 230 231 240 246 263 284 307 322 322 325 327 328 327 329 324 324 330 337 337 330 328
236 239 233 233 233 232 236 238 232 232 227 228 231 236 238 239 245 233 224 217 203 224 228 234 232 237 258 285 305 319 321 322 324 326 327 324 324 326 332 337 336 336 334
243 244 243 236 234 238 236 234 232 229 226 225 226 230 236 239 235 236 237 224 213 213 219 222 228 239 260 288 307 316 318 321 323 324 327 324 328 330 336 338 339 339 336
256 256 255 240 235 238 239 239 235 226 226 226 226 227 230 233 226 222 223 217 206 204 207 225 224 247 268 290 302 314 321 323 321 328 325 329 331 336 337 338 339 338 337
278 277 304 299 248 235 246 250 240 232 226 227 226 228 226 228 218 210 198 193 177 185 166 195 219 245 265 286 307 322 329 326 327 329 328 330 334 335 335 337 340 341 342
258 282 286 278 325 260 235 252 247 240 232 230 230 230 227 223 218 208 191 182 176 156 137 179 215 232 250 297 324 337 334 332 333 331 331 328 334 337 338 342 343 345 348
232 213 230 232 281 124 227 238 250 242 234 227 232 238 234 224 218 214 201 195 184 169 115 146 176 188 282 334 339 337 336 337 336 333 330 334 338 343 347 342 349 351 356
227 217 209 216 216 214 214 234 247 243 238 230 229 233 242 233 224 217 208 203 196 186 176 168 168 180 323 339 339 336 337 337 336 338 335 336 347 353 348 347 348 357 358
240 220 213 221 231 228 229 249 242 233 231 221 227 233 249 242 233 227 219 213 208 208 210 229 219 242 294 323 328 330 334 342 340 339 340 346 352 355 354 353 357 11 50
250 245 237 241 245 244 250 233 238 234 233 240 239 226 248 245 239 232 228 225 220 213 223 230 249 260 277 302 321 323 330 332 337 341 349 346 353 353 355 1 5 6 91
237 238 242 248 248 247 238 233 232 240 243 254 239 217 240 243 239 233 232 232 238 236 230 236 243 259 273 285 303 315 321 327 343 334 342 344 350 349 354 5 12 10 105
263 252 252 251 244 240 241 239 238 241 244 245 231 230 239 238 239 233 230 230 234 238 239 240 250 259 271 280 291 305 311 315 324 325 332 338 342 349 349 4 18 30 34
319 283 260 251 248 249 249 246 239 244 248 246 246 245 232 230 233 229 231 229 232 233 235 241 249 256 261 273 282 294 302 301 313 322 331 326 323 340 328 348 9 28 21
314 313 292 259 248 245 248 255 239 236 242 246 248 247 242 223 224 221 228 231 235 239 239 241 241 249 258 269 277 289 294 292 291 291 317 314 305 330 317 316 311 342 342
328 314 307 286 254 245 244 227 232 231 241 247 246 253 248 229 212 221 222 215 225 243 243 242 243 247 254 262 269 277 279 276 272 313 297 313 309 322 315 300 310 322 317